SCP
0 0 0 0 0 0 0 0 -0 0 0 -0 -0 0 0 0 0 0 0 0 0 0 0 0 0 0 0 0 0 0 0 0 0 0 0 0 0 0
-0 0 0 0 0 0 0 0 0 0 0 0 -0 -0 0 0 0 0 0 0 0 0 0 0 0 0 0 0 0 0 0 0 0 0 0 0 0 0
-0 -0 0 0 0 0 0 0 0 0 0 0 0 0 0 0 0 0 0 0 0 0 0 0 0 0 0 0 0 0 0 0 0 0 0 0 0 0
-0 -0 -0 -0 0 0 0 0 0 0 0 0 0 0 0 -0 0 0 0 0 0 0 0 0 0 0 0 0 0 0 0 0 0 0 0 0 0 0
-0 0 0 0 -0 -0 -0 0 0 0 0 0 0 0 0 0 0 0 0 0 0 0 0 0 0 0 0 0 0 0 0 0 0 0 0 0 0 0
0 0 0 0 0 0 0 -0 0 0 0 0 0 0 0 0 0 0 0 0 0 0 0 0 0 0 0 0 0 0 0 0 0 0 0 0 0 0
0 0 0 0 0 0 0 0 0 0 0 0 0 0 0 0 0 0 0 -0 0 0 0 0 0 0 0 0 0 0 0 0 0 0 0 0 0 0
0 0 -0 -0 -0 0 0 0 0 0 0 0 0 0 0 0 0 0 0 0 -0 -0 -0 0 0 0 0 0 0 0 0 0 0 0 0 0 0 0
0 0 0 0 0 0 0 0 0 0 0 0 0 0 0 0 0 0 0 0 0 0 0 -0 0 0 0 0 0 0 0 0 0 0 0 0 0 0
0 0 0 0 0 0 0 0 0 0 0 0 0 0 0 0 0 0 0 0 0 0 0 0 0 0 0 0 0 0 0 0 0 0 0 0 0 0
0 0 0 0 0 0 0 0 0 0 0 0 0 0 0 0 0 0 0 0 0 0 0 0 0 0 0 0 0 0 0 0 0 0 0 0 0 0
0 0 0 0 0 0 0 0 0 0 0 0 0 0 0 0 0 0 0 0 0 0 0 0 0 0 0 0 0 0 0 0 0 0 0 0 0 0
0 0 0 0 0 0 0 0 0 0 0 0 0 0 0 0 0 0 0 0 0 0 0 0 0 0 0 0 0 0 0 0 0 0 0 0 0 0
0 0 0 0 0 0 0 0 0 0 0 0 0 0 0 0 0 0 0 0 0 0 0 0 0 0 0 0 0 0 0 0 0 0 0 0 0 0
0 0 -0 -0 0 0 0 0 0 0 0 0 0 0 0 0 0 0 0 0 0 0 0 0 0 0 0 0 0 0 0 0 0 0 0 0 0 0
0 0 0 0 -0 0 0 0 0 0 0 0 0 0 0 0 0 0 0 0 0 0 0 0 0 0 0 0 0 0 0 0 0 0 0 0 0 0
-0 0 0 0 0 0 0 0 0 0 0 0 0 0 0 0 0 0 0 0 0 0 0 0 0 0 0 0 0 0 0 0 0 0 0 0 0 0
0 0 0 0 0 0 0 0 0 0 0 0 0 0 0 0 0 0 0 0 0 0 0 0 0 0 0 0 0 0 0 0 0 0 0 0 0 0
0 0 0 0 0 0 0 0 0 0 0 0 0 0 0 0 0 0 0 0 0 0 0 0 0 0 0 0 0 0 0 0 0 0 0 0 0 0
0 0 0 0 0 0 0 0 0 0 0 0 0 0 0 0 0 0 0 0 0 0 0 0 0 0 0 0 0 0 0 0 0 0 0 0 0 0
0 0 0 0 0 0 0 0 0 0 0 0 0 0 0 0 0 0 0 0 0 0 0 0 0 0 0 0 0 0 0 0 0 0 0 0 0 0
0 0 0 0 0 0 0 0 0 0 0 0 0 0 0 0 0 0 0 0 0 0 0 0 0 0 0 0 0 0 0 0 0 0 0 0 0 0
0 0 0 0 0 0 0 0 0 0 0 0 0 0 0 0 0 0 0 0 0 0 0 0 0 0 0 0 0 0 0 0 0 0 0 0 0 0
Wind_Speed_500mb
56 55 54 49 48 46 44 41 45 60 87 64 63 71 67 64 65 69 75 75 69 61 63 71 76 79 76 71 67 64 60 59 56 54 52 49 46 44
70 70 68 65 64 58 56 53 49 52 69 83 82 77 72 72 67 69 72 74 77 71 65 68 77 81 80 76 72 69 65 65 62 60 57 55 52 48
84 82 78 73 73 71 68 66 65 63 75 87 85 82 79 72 66 65 69 73 78 82 77 70 73 81 84 81 77 75 72 70 69 67 64 61 56 54
84 83 87 85 81 78 76 76 76 73 77 88 88 89 88 83 75 66 65 68 75 78 82 86 77 74 80 83 81 80 79 75 74 74 71 66 61 57
86 87 87 86 90 90 85 82 81 81 82 85 95 90 93 88 87 81 73 69 69 74 79 83 93 89 83 85 85 83 81 81 80 79 76 72 66 62
92 92 89 88 89 89 88 85 81 80 81 85 90 93 91 93 92 90 91 82 75 67 69 80 85 93 97 94 92 90 85 84 85 83 80 79 73 67
94 93 91 86 83 79 71 81 76 78 79 67 68 68 68 74 84 86 88 86 87 78 73 73 81 88 97 101 102 98 93 89 88 87 85 85 82 74
93 91 87 83 80 62 62 64 65 70 75 74 73 72 76 62 58 67 80 82 89 77 61 70 62 81 93 100 103 104 100 96 93 90 90 91 88 82
84 81 78 70 70 72 68 60 62 66 66 72 81 87 80 72 66 70 71 73 90 87 81 92 78 81 75 85 96 101 101 98 95 93 94 96 93 89
76 73 72 70 64 57 60 62 60 59 58 61 69 84 88 90 83 87 87 82 80 83 84 95 84 94 79 79 82 83 96 101 97 93 93 97 97 94
73 66 62 66 58 52 57 65 69 71 69 65 68 69 68 68 68 76 87 78 88 92 81 89 101 92 89 86 82 83 89 87 92 94 91 94 97 97
68 69 70 57 55 56 62 68 75 76 73 68 65 66 66 71 66 71 77 84 93 88 77 82 89 85 80 94 90 84 83 85 85 80 82 88 91 95
73 76 75 73 62 59 60 66 73 70 78 84 87 81 65 73 81 78 79 85 89 98 92 85 88 86 92 75 49 45 62 79 82 77 80 81 86 93
76 81 82 75 72 73 75 77 73 73 81 87 91 94 95 95 89 86 83 80 95 95 87 89 92 83 87 89 85 81 78 62 63 75 81 83 87 91
69 73 73 72 69 68 70 68 65 73 79 81 85 89 87 90 85 84 83 87 89 96 88 101 111 88 90 91 84 79 70 75 73 69 67 86 92 98
77 73 78 77 73 56 52 55 61 61 64 72 80 83 83 80 82 79 82 82 82 90 94 91 98 103 100 97 87 82 79 74 63 68 75 76 90 102
69 72 66 63 60 56 56 56 56 54 56 63 71 78 79 80 80 72 75 78 82 90 102 81 97 93 97 95 86 96 96 88 84 73 62 74 83 99
61 62 60 58 58 59 60 61 57 60 60 64 61 66 76 76 78 76 75 77 81 81 87 72 77 74 81 90 100 91 90 95 90 84 76 73 79 90
51 54 56 56 57 58 59 60 63 61 60 62 62 61 60 64 65 70 75 78 77 72 78 78 77 74 68 65 69 93 91 90 84 81 75 75 80 81
51 54 56 58 59 60 60 60 61 60 58 60 57 55 54 58 62 69 72 72 62 62 83 62 83 77 73 73 68 74 80 89 84 82 76 71 75 76
50 52 54 57 59 61 63 62 62 63 61 59 54 53 52 54 59 62 65 63 55 50 44 61 64 54 60 66 58 63 61 66 77 80 76 73 77 81
51 53 54 55 58 61 64 64 65 64 63 61 56 49 47 50 55 57 56 57 47 47 47 48 51 53 63 63 57 61 58 51 58 61 64 62 66 66
49 51 52 53 56 59 62 64 64 68 67 62 59 54 49 48 43 41 42 45 37 32 35 49 48 50 47 48 54 51 47 44 51 50 42 49 56 52
Wind_Direction_500mb
316 313 311 310 305 303 301 300 297 295 300 300 296 298 295 289 284 280 274 267 266 270 266 262 260 259 260 259 259 259 257 251 249 247 244 242 241 240
312 308 305 303 299 297 295 293 289 287 284 293 297 298 296 290 285 279 275 273 268 264 268 263 261 261 261 261 259 258 255 249 247 247 244 242 242 243
311 308 304 301 297 294 291 288 285 283 283 287 289 293 293 295 294 287 278 271 268 267 263 265 265 261 261 261 257 256 254 248 246 247 246 245 245 245
311 308 307 306 301 296 292 288 286 283 282 285 284 286 287 289 292 289 287 280 270 264 264 261 260 264 263 261 259 255 253 248 244 245 245 244 245 245
311 308 306 303 301 301 298 293 288 286 284 284 284 282 282 283 285 286 286 282 280 274 264 259 258 257 260 261 259 255 252 249 244 243 243 243 243 244
310 307 303 299 297 295 295 296 293 290 286 285 285 285 283 281 281 283 284 285 283 277 271 265 259 256 256 257 260 259 254 249 245 242 242 242 242 242
308 305 303 300 294 289 286 285 287 288 288 286 283 284 283 284 281 284 281 284 284 281 275 263 259 256 252 253 255 256 255 252 246 242 240 240 240 240
308 308 307 306 303 296 287 279 275 278 280 282 282 279 279 276 279 282 282 282 284 283 287 277 267 262 258 253 252 254 257 255 250 244 241 241 241 239
311 310 307 304 303 301 298 291 282 273 270 273 273 272 275 274 275 274 274 276 275 274 278 278 272 266 263 260 254 252 253 255 253 250 244 241 241 240
314 311 309 311 311 304 302 301 298 298 294 288 280 277 276 278 276 269 270 265 270 272 268 268 268 271 266 262 259 257 252 252 253 252 249 247 243 242
316 317 318 314 310 302 299 296 294 291 290 283 277 276 277 275 272 275 272 271 272 266 258 259 262 265 268 268 260 256 252 253 251 251 250 246 247 244
323 322 319 306 302 298 294 293 293 295 299 301 298 296 296 291 288 273 267 271 268 272 259 252 256 257 262 265 264 258 253 250 248 247 246 245 244 244
315 311 313 312 302 298 295 292 289 296 294 290 290 290 288 288 286 284 281 267 268 264 257 253 256 248 252 253 259 257 251 249 246 245 240 235 232 235
312 312 311 310 304 298 294 294 291 288 285 284 285 284 285 287 290 291 289 273 260 262 268 247 250 243 245 250 249 251 249 245 240 239 234 232 230 231
314 312 307 304 301 295 291 293 293 290 290 287 283 283 285 288 287 282 280 280 272 261 256 252 245 248 238 243 247 247 243 244 242 238 236 231 227 225
323 311 301 301 301 304 304 306 307 302 298 287 284 285 286 284 281 279 274 277 276 270 246 256 245 242 242 237 240 242 246 242 245 242 241 233 229 227
310 310 316 316 315 314 315 318 321 321 315 315 304 296 295 296 292 283 276 277 269 274 258 260 242 239 242 240 237 241 244 246 249 247 238 237 231 227
328 326 325 325 325 324 322 321 322 325 324 321 314 295 292 289 285 286 284 275 270 268 265 258 225 232 238 241 241 238 243 248 244 246 246 242 240 235
340 343 342 340 336 333 330 329 328 330 329 328 318 308 297 293 291 292 288 280 275 268 254 244 234 224 227 227 232 233 234 240 240 240 242 241 240 238
349 354 353 351 347 343 338 335 334 335 336 335 329 315 304 299 297 295 298 298 283 263 259 251 220 225 221 233 233 240 237 237 239 243 242 242 242 243
348 351 352 352 351 349 347 343 340 340 339 337 334 330 320 309 304 304 307 310 310 284 274 230 233 245 248 239 230 235 237 238 241 244 241 234 230 227
346 346 348 349 349 350 350 349 346 344 340 337 334 331 327 325 316 311 307 306 301 302 270 256 248 245 239 234 232 239 241 233 229 234 238 238 226 218
341 341 343 344 346 347 349 348 350 350 344 337 334 332 330 324 316 307 303 301 299 293 265 246 247 245 245 241 238 238 236 222 215 209 211 219 224 226
Wind_Speed_850mb
56 55 54 49 48 46 44 41 45 60 87 64 63 71 67 64 65 69 75 75 69 61 63 71 76 79 76 71 67 64 60 59 56 54 52 49 46 44
70 70 68 65 64 58 56 53 49 52 69 83 82 77 72 72 67 69 72 74 77 71 65 68 77 81 80 76 72 69 65 65 62 60 57 55 52 48
84 82 78 73 73 71 68 66 65 63 75 87 85 82 79 72 66 65 69 73 78 82 77 70 73 81 84 81 77 75 72 70 69 67 64 61 56 54
84 83 87 85 81 78 76 76 76 73 77 88 88 89 88 83 75 66 65 68 75 78 82 86 77 74 80 83 81 80 79 75 74 74 71 66 61 57
86 87 87 86 90 90 85 82 81 81 82 85 95 90 93 88 87 81 73 69 69 74 79 83 93 89 83 85 85 83 81 81 80 79 76 72 66 62
92 92 89 88 89 89 88 85 81 80 81 85 90 93 91 93 92 90 91 82 75 67 69 80 85 93 97 94 92 90 85 84 85 83 80 79 73 67
94 93 91 86 83 79 71 81 76 78 79 67 68 68 68 74 84 86 88 86 87 78 73 73 81 88 97 101 102 98 93 89 88 87 85 85 82 74
93 91 87 83 80 62 62 64 65 70 75 74 73 72 76 62 58 67 80 82 89 77 61 70 62 81 93 100 103 104 100 96 93 90 90 91 88 82
84 81 78 70 70 72 68 60 62 66 66 72 81 87 80 72 66 70 71 73 90 87 81 92 78 81 75 85 96 101 101 98 95 93 94 96 93 89
76 73 72 70 64 57 60 62 60 59 58 61 69 84 88 90 83 87 87 82 80 83 84 95 84 94 79 79 82 83 96 101 97 93 93 97 97 94
73 66 62 66 58 52 57 65 69 71 69 65 68 69 68 68 68 76 87 78 88 92 81 89 101 92 89 86 82 83 89 87 92 94 91 94 97 97
68 69 70 57 55 56 62 68 75 76 73 68 65 66 66 71 66 71 77 84 93 88 77 82 89 85 80 94 90 84 83 85 85 80 82 88 91 95
73 76 75 73 62 59 60 66 73 70 78 84 87 81 65 73 81 78 79 85 89 98 92 85 88 86 92 75 49 45 62 79 82 77 80 81 86 93
76 81 82 75 72 73 75 77 73 73 81 87 91 94 95 95 89 86 83 80 95 95 87 89 92 83 87 89 85 81 78 62 63 75 81 83 87 91
69 73 73 72 69 68 70 68 65 73 79 81 85 89 87 90 85 84 83 87 89 96 88 101 111 88 90 91 84 79 70 75 73 69 67 86 92 98
77 73 78 77 73 56 52 55 61 61 64 72 80 83 83 80 82 79 82 82 82 90 94 91 98 103 100 97 87 82 79 74 63 68 75 76 90 102
69 72 66 63 60 56 56 56 56 54 56 63 71 78 79 80 80 72 75 78 82 90 102 81 97 93 97 95 86 96 96 88 84 73 62 74 83 99
61 62 60 58 58 59 60 61 57 60 60 64 61 66 76 76 78 76 75 77 81 81 87 72 77 74 81 90 100 91 90 95 90 84 76 73 79 90
51 54 56 56 57 58 59 60 63 61 60 62 62 61 60 64 65 70 75 78 77 72 78 78 77 74 68 65 69 93 91 90 84 81 75 75 80 81
51 54 56 58 59 60 60 60 61 60 58 60 57 55 54 58 62 69 72 72 62 62 83 62 83 77 73 73 68 74 80 89 84 82 76 71 75 76
50 52 54 57 59 61 63 62 62 63 61 59 54 53 52 54 59 62 65 63 55 50 44 61 64 54 60 66 58 63 61 66 77 80 76 73 77 81
51 53 54 55 58 61 64 64 65 64 63 61 56 49 47 50 55 57 56 57 47 47 47 48 51 53 63 63 57 61 58 51 58 61 64 62 66 66
49 51 52 53 56 59 62 64 64 68 67 62 59 54 49 48 43 41 42 45 37 32 35 49 48 50 47 48 54 51 47 44 51 50 42 49 56 52
Wind_Direction_850mb
316 313 311 310 305 303 301 300 297 295 300 300 296 298 295 289 284 280 274 267 266 270 266 262 260 259 260 259 259 259 257 251 249 247 244 242 241 240
312 308 305 303 299 297 295 293 289 287 284 293 297 298 296 290 285 279 275 273 268 264 268 263 261 261 261 261 259 258 255 249 247 247 244 242 242 243
311 308 304 301 297 294 291 288 285 283 283 287 289 293 293 295 294 287 278 271 268 267 263 265 265 261 261 261 257 256 254 248 246 247 246 245 245 245
311 308 307 306 301 296 292 288 286 283 282 285 284 286 287 289 292 289 287 280 270 264 264 261 260 264 263 261 259 255 253 248 244 245 245 244 245 245
311 308 306 303 301 301 298 293 288 286 284 284 284 282 282 283 285 286 286 282 280 274 264 259 258 257 260 261 259 255 252 249 244 243 243 243 243 244
310 307 303 299 297 295 295 296 293 290 286 285 285 285 283 281 281 283 284 285 283 277 271 265 259 256 256 257 260 259 254 249 245 242 242 242 242 242
308 305 303 300 294 289 286 285 287 288 288 286 283 284 283 284 281 284 281 284 284 281 275 263 259 256 252 253 255 256 255 252 246 242 240 240 240 240
308 308 307 306 303 296 287 279 275 278 280 282 282 279 279 276 279 282 282 282 284 283 287 277 267 262 258 253 252 254 257 255 250 244 241 241 241 239
311 310 307 304 303 301 298 291 282 273 270 273 273 272 275 274 275 274 274 276 275 274 278 278 272 266 263 260 254 252 253 255 253 250 244 241 241 240
314 311 309 311 311 304 302 301 298 298 294 288 280 277 276 278 276 269 270 265 270 272 268 268 268 271 266 262 259 257 252 252 253 252 249 247 243 242
316 317 318 314 310 302 299 296 294 291 290 283 277 276 277 275 272 275 272 271 272 266 258 259 262 265 268 268 260 256 252 253 251 251 250 246 247 244
323 322 319 306 302 298 294 293 293 295 299 301 298 296 296 291 288 273 267 271 268 272 259 252 256 257 262 265 264 258 253 250 248 247 246 245 244 244
315 311 313 312 302 298 295 292 289 296 294 290 290 290 288 288 286 284 281 267 268 264 257 253 256 248 252 253 259 257 251 249 246 245 240 235 232 235
312 312 311 310 304 298 294 294 291 288 285 284 285 284 285 287 290 291 289 273 260 262 268 247 250 243 245 250 249 251 249 245 240 239 234 232 230 231
314 312 307 304 301 295 291 293 293 290 290 287 283 283 285 288 287 282 280 280 272 261 256 252 245 248 238 243 247 247 243 244 242 238 236 231 227 225
323 311 301 301 301 304 304 306 307 302 298 287 284 285 286 284 281 279 274 277 276 270 246 256 245 242 242 237 240 242 246 242 245 242 241 233 229 227
310 310 316 316 315 314 315 318 321 321 315 315 304 296 295 296 292 283 276 277 269 274 258 260 242 239 242 240 237 241 244 246 249 247 238 237 231 227
328 326 325 325 325 324 322 321 322 325 324 321 314 295 292 289 285 286 284 275 270 268 265 258 225 232 238 241 241 238 243 248 244 246 246 242 240 235
340 343 342 340 336 333 330 329 328 330 329 328 318 308 297 293 291 292 288 280 275 268 254 244 234 224 227 227 232 233 234 240 240 240 242 241 240 238
349 354 353 351 347 343 338 335 334 335 336 335 329 315 304 299 297 295 298 298 283 263 259 251 220 225 221 233 233 240 237 237 239 243 242 242 242 243
348 351 352 352 351 349 347 343 340 340 339 337 334 330 320 309 304 304 307 310 310 284 274 230 233 245 248 239 230 235 237 238 241 244 241 234 230 227
346 346 348 349 349 350 350 349 346 344 340 337 334 331 327 325 316 311 307 306 301 302 270 256 248 245 239 234 232 239 241 233 229 234 238 238 226 218
341 341 343 344 346 347 349 348 350 350 344 337 334 332 330 324 316 307 303 301 299 293 265 246 247 245 245 241 238 238 236 222 215 209 211 219 224 226